Flag for Russia Weather past 2 weeks in Murmansk, Russia

Now
64 °F

Broken clouds.


Feels Like: 64 °F
Forecast: 53 / 73 °F
Wind: 1 mph from North

Location: Murmansk Airport

Current Time: Jul 26, 2014 at 5:16:27 PM

Latest Report: Jul 26, 2014 at 4:30 PM


Visibility: N/A

Pressure: 30.07 "Hg

Humidity: 78%

Dew point: 57 °F

Location of MurmanskLocation

Historic Weather in Murmansk — Graph

°F

Murmansk temperature yesterday

Maximum temperature yesterday: 68 °F (at 2:00 PM)
Minimum temperature yesterday: 54 °F (at 12:30 AM)
Average temperature yesterday: 61 °F

Past Weeks' High & Low Weather Summary

 TemperatureHumidityPressure
High81 °F (Jul 21, 2:30 PM)94% (Jul 11, 10:00 PM)30.27 "Hg (Jul 11, 10:00 PM)
Low45 °F (Jul 16, 4:30 AM)32% (Jul 21, 2:00 PM)29.92 "Hg (Jul 15, 7:30 AM)
Average61 °F69%30.12 "Hg
* Reported Jul 11 3:00 PM — Jul 26 3:30 PM, Murmansk, Weather by CustomWeather, © 2014

Note: Actual official high and low records may vary slightly from our data, if they occured in-between our weather recording intervals... More about our weather records

Advertising

Murmansk weather history for previous 24 hours

 ConditionsComfort  
Time TempWeatherWind HumidityBarometerVisibility
3:30 PM
Jul 26
66 °FSprinkles. Broken clouds.1 mph68%30.07 "HgN/A
3:00 PM68 °FBroken clouds.No wind60%30.07 "HgN/A
2:30 PM68 °FBroken clouds.6 mph56%30.07 "HgN/A
2:00 PM66 °FBroken clouds.3 mph56%30.07 "HgN/A
1:30 PM68 °FBroken clouds.3 mph56%30.07 "HgN/A
1:00 PM66 °FBroken clouds.3 mph56%30.07 "HgN/A
12:30 PM68 °FPartly sunny.6 mph53%30.07 "HgN/A
12:00 PM66 °FPartly sunny.3 mph60%30.07 "HgN/A
11:30 AM66 °FPartly sunny.3 mph60%30.07 "HgN/A
11:00 AM66 °FPartly sunny.3 mph56%30.07 "HgN/A
10:30 AM64 °FPartly sunny.3 mph60%30.07 "HgN/A
10:00 AM64 °FSunny.3 mph60%30.07 "Hg10 mi
9:30 AM64 °FSunny.1 mph56%30.09 "Hg10 mi
9:00 AM63 °FSunny.1 mph64%30.09 "Hg10 mi
8:30 AM61 °FSunny.3 mph68%30.09 "Hg10 mi
8:00 AM59 °FSunny.3 mph72%30.09 "Hg10 mi
7:30 AM57 °FSunny.3 mph77%30.09 "Hg10 mi
7:00 AM55 °FSunny.1 mph82%30.09 "Hg10 mi
6:30 AM55 °FSunny.No wind82%30.09 "Hg10 mi
6:00 AM54 °FSunny.No wind82%30.09 "Hg10 mi
5:30 AM54 °FSunny.No wind82%30.09 "Hg10 mi
5:00 AM54 °FSunny.3 mph82%30.09 "Hg10 mi
4:30 AM52 °FSunny.3 mph88%30.09 "Hg10 mi
4:00 AM50 °FSunny.3 mph88%30.09 "Hg10 mi
3:30 AM52 °FSunny.1 mph88%30.09 "Hg10 mi
3:00 AM52 °FSunny.1 mph88%30.09 "Hg10 mi
2:30 AM52 °FClear.1 mph88%30.09 "Hg10 mi
2:00 AM50 °FClear.1 mph94%30.12 "Hg10 mi
1:30 AM50 °FSunny.No wind88%30.12 "Hg10 mi
1:00 AM48 °FSunny.No wind94%30.12 "Hg10 mi
12:30 AM50 °FSunny.1 mph88%30.09 "Hg10 mi
12:00 AM52 °FSunny.1 mph82%30.09 "Hg10 mi
11:30 PM
Jul 25
54 °FSunny.No wind82%30.09 "Hg10 mi
11:00 PM59 °FSunny.1 mph63%30.09 "Hg10 mi
10:30 PM61 °FSunny.3 mph63%30.09 "Hg10 mi
10:00 PM63 °FSunny.3 mph56%30.12 "Hg10 mi
9:30 PM63 °FSunny.3 mph52%30.09 "Hg10 mi
9:00 PM64 °FSunny.6 mph46%30.09 "Hg10 mi
8:30 PM64 °FSunny.13 mph46%30.12 "Hg10 mi
8:00 PM66 °FSunny.13 mph43%30.09 "Hg10 mi
7:30 PM64 °FPassing clouds.6 mph52%30.09 "HgN/A
7:00 PM64 °FPassing clouds.6 mph52%30.09 "HgN/A
6:30 PM66 °FPassing clouds.6 mph46%30.09 "HgN/A
6:00 PM68 °FPassing clouds.13 mph38%30.09 "HgN/A
5:30 PM68 °FPassing clouds.13 mph38%30.09 "HgN/A
5:00 PM68 °FPassing clouds.15 mph38%30.09 "HgN/A
Weather by CustomWeather, © 2014

See weather overviewHow to use our weather pages